Private Wetterstation Wechselburg
Wetterdaten: Donnerstag, 20.06.2019
Datum Zeit Temp. +2m Bodentemp. Temp.+5cm Temp. Wind Windchill X Diff Temp. Feuchte +2m Feuchte +5cm Luftdruck Regen Wind Richtung Richtung Sonnenschein Taupunkt Windchill Windben
20.06.2019 00:00 19,8 C 21,2 C 19,5 C 19,4 C 18,7 C 0,0 C 80 % 83 % 1009,7 hPa 0,0 l/m 0,0 km/h (0 Bft) N-NW 337 0 min 16,2 C 18,7 C 0,0 km/h (0 Bft)
20.06.2019 00:05 19,8 C 21,2 C 19,4 C 19,4 C 18,6 C 0,0 C 81 % 83 % 1009,3 hPa 0,0 l/m 0,0 km/h (0 Bft) N-NW 337 0 min 16,4 C 18,6 C 0,0 km/h (0 Bft)
20.06.2019 00:11 19,7 C 21,2 C 19,3 C 19,3 C 18,5 C 0,0 C 81 % 83 % 1009,3 hPa 0,0 l/m 0,3 km/h (0 Bft) N 0 0 min 16,3 C 18,5 C 0,0 km/h (0 Bft)
20.06.2019 00:24 19,6 C 21,1 C 19,7 C 19,4 C 19,0 C 0,0 C 81 % 80 % 1009,8 hPa 0,0 l/m 1,8 km/h (1 Bft) S 180 0 min 16,2 C 19,0 C 3,1 km/h (1 Bft)
20.06.2019 00:25 19,6 C 21,1 C 19,7 C 19,4 C 19,0 C 0,0 C 81 % 80 % 1009,8 hPa 0,0 l/m 1,8 km/h (1 Bft) S 180 0 min 16,2 C 19,0 C 3,1 km/h (1 Bft)
20.06.2019 00:40 19,9 C 21,1 C 19,7 C 19,9 C 19,9 C 0,0 C 79 % 78 % 1009,8 hPa 0,0 l/m 1,6 km/h (1 Bft) O-NO 67 0 min 16,1 C 19,9 C 0,0 km/h (0 Bft)
20.06.2019 00:45 19,9 C 21,1 C 19,5 C 19,8 C 19,6 C 0,0 C 78 % 78 % 1009,8 hPa 0,0 l/m 1,3 km/h (1 Bft) O-NO 67 0 min 15,9 C 19,6 C 2,6 km/h (1 Bft)
20.06.2019 00:50 19,9 C 21,1 C 19,3 C 19,7 C 19,4 C 0,0 C 77 % 78 % 1009,8 hPa 0,0 l/m 1,3 km/h (1 Bft) NW 315 0 min 15,7 C 19,4 C 2,3 km/h (1 Bft)
20.06.2019 00:55 19,9 C 21,0 C 19,3 C 19,6 C 19,1 C 0,0 C 77 % 78 % 1009,8 hPa 0,0 l/m 0,6 km/h (0 Bft) SO 135 0 min 15,7 C 19,1 C 0,0 km/h (0 Bft)
20.06.2019 01:00 19,8 C 21,0 C 19,3 C 19,5 C 18,9 C 0,0 C 77 % 79 % 1009,8 hPa 0,0 l/m 0,3 km/h (0 Bft) O 90 0 min 15,6 C 18,9 C 0,0 km/h (0 Bft)
20.06.2019 01:05 19,6 C 21,0 C 19,1 C 19,3 C 18,7 C 0,0 C 77 % 79 % 1009,8 hPa 0,0 l/m 0,0 km/h (0 Bft) NO 45 0 min 15,5 C 18,7 C 0,0 km/h (0 Bft)
20.06.2019 01:10 19,5 C 21,0 C 19,0 C 19,2 C 18,5 C 0,0 C 77 % 79 % 1009,8 hPa 0,0 l/m 0,0 km/h (0 Bft) SW 225 0 min 15,4 C 18,5 C 0,0 km/h (0 Bft)
20.06.2019 01:15 19,5 C 21,0 C 18,8 C 19,1 C 18,3 C 0,0 C 77 % 80 % 1009,8 hPa 0,0 l/m 0,0 km/h (0 Bft) O-NO 67 0 min 15,4 C 18,3 C 0,0 km/h (0 Bft)
20.06.2019 01:20 19,3 C 21,0 C 18,8 C 18,9 C 18,1 C 0,0 C 78 % 80 % 1009,8 hPa 0,0 l/m 0,0 km/h (0 Bft) NO 45 0 min 15,4 C 18,1 C 0,0 km/h (0 Bft)
20.06.2019 01:25 19,2 C 21,0 C 18,6 C 18,8 C 18,0 C 0,0 C 78 % 80 % 1009,8 hPa 0,0 l/m 0,0 km/h (0 Bft) NW 315 0 min 15,3 C 18,0 C 0,0 km/h (0 Bft)
20.06.2019 01:30 19,1 C 21,0 C 18,5 C 18,7 C 17,8 C 0,0 C 78 % 81 % 1009,8 hPa 0,0 l/m 0,0 km/h (0 Bft) N-NO 22 0 min 15,2 C 17,8 C 0,0 km/h (0 Bft)
20.06.2019 01:35 19,0 C 21,0 C 18,4 C 18,5 C 17,5 C 0,0 C 78 % 81 % 1009,8 hPa 0,0 l/m 0,0 km/h (0 Bft) SO 135 0 min 15,1 C 17,5 C 0,0 km/h (0 Bft)
20.06.2019 01:40 18,9 C 21,0 C 18,3 C 18,4 C 17,4 C 0,0 C 79 % 82 % 1009,8 hPa 0,0 l/m 0,0 km/h (0 Bft) N-NW 337 0 min 15,2 C 17,4 C 0,0 km/h (0 Bft)
20.06.2019 01:45 18,7 C 21,0 C 18,2 C 18,2 C 17,3 C 0,0 C 79 % 82 % 1009,4 hPa 0,0 l/m 0,0 km/h (0 Bft) O-NO 67 0 min 15,0 C 17,3 C 0,0 km/h (0 Bft)
20.06.2019 01:50 18,6 C 21,0 C 18,1 C 18,2 C 17,3 C 0,0 C 79 % 82 % 1009,4 hPa 0,0 l/m 0,0 km/h (0 Bft) NW 315 0 min 14,9 C 17,3 C 0,0 km/h (0 Bft)
20.06.2019 01:55 18,5 C 21,0 C 18,0 C 18,0 C 17,1 C 0,0 C 80 % 83 % 1009,4 hPa 0,0 l/m 0,0 km/h (0 Bft) NO 45 0 min 15,0 C 17,1 C 0,0 km/h (0 Bft)
20.06.2019 02:00 18,4 C 21,0 C 18,0 C 17,9 C 17,0 C 0,0 C 80 % 83 % 1009,4 hPa 0,0 l/m 0,0 km/h (0 Bft) O-SO 112 0 min 14,9 C 17,0 C 0,0 km/h (0 Bft)
20.06.2019 02:05 18,3 C 20,9 C 17,9 C 17,8 C 16,8 C 0,0 C 80 % 83 % 1009,4 hPa 0,0 l/m 0,0 km/h (0 Bft) NO 45 0 min 14,8 C 16,8 C 0,0 km/h (0 Bft)
20.06.2019 02:11 18,3 C 20,9 C 17,8 C 17,8 C 16,8 C 0,0 C 80 % 83 % 1009,4 hPa 0,0 l/m 0,0 km/h (0 Bft) N 0 0 min 14,8 C 16,8 C 0,0 km/h (0 Bft)
20.06.2019 02:26 17,9 C 20,9 C 17,4 C 17,4 C 16,4 C 0,0 C 81 % 84 % 1009,4 hPa 0,0 l/m 0,0 km/h (0 Bft) NW 315 0 min 14,6 C 16,4 C 0,0 km/h (0 Bft)
20.06.2019 02:35 17,6 C 20,9 C 17,3 C 17,1 C 16,0 C 0,0 C 81 % 84 % 1009,4 hPa 0,0 l/m 0,0 km/h (0 Bft) SW 225 0 min 14,3 C 16,0 C 0,0 km/h (0 Bft)
20.06.2019 02:40 17,6 C 20,9 C 17,2 C 17,0 C 15,9 C 0,0 C 81 % 85 % 1009,4 hPa 0,0 l/m 0,0 km/h (0 Bft) SW 225 0 min 14,3 C 15,9 C 0,0 km/h (0 Bft)
20.06.2019 02:45 17,5 C 20,9 C 17,1 C 16,9 C 15,8 C 0,0 C 82 % 85 % 1009,6 hPa 0,0 l/m 0,0 km/h (0 Bft) NO 45 0 min 14,4 C 15,8 C 0,0 km/h (0 Bft)
20.06.2019 02:50 17,5 C 20,9 C 17,0 C 16,9 C 15,7 C 0,0 C 82 % 85 % 1009,6 hPa 0,0 l/m 0,0 km/h (0 Bft) NO 45 0 min 14,4 C 15,7 C 0,0 km/h (0 Bft)
20.06.2019 02:55 17,2 C 20,9 C 16,9 C 16,7 C 15,6 C 0,0 C 82 % 86 % 1009,6 hPa 0,0 l/m 0,0 km/h (0 Bft) NW 315 0 min 14,1 C 15,6 C 0,0 km/h (0 Bft)
20.06.2019 03:00 17,2 C 20,9 C 16,9 C 16,7 C 15,6 C 0,0 C 82 % 86 % 1009,6 hPa 0,0 l/m 0,0 km/h (0 Bft) NW 315 0 min 14,1 C 15,6 C 0,0 km/h (0 Bft)
20.06.2019 03:05 17,2 C 20,9 C 16,8 C 16,7 C 15,6 C 0,0 C 82 % 86 % 1009,6 hPa 0,0 l/m 0,0 km/h (0 Bft) NW 315 0 min 14,1 C 15,6 C 0,0 km/h (0 Bft)
20.06.2019 03:10 17,1 C 20,9 C 16,8 C 16,6 C 15,6 C 0,0 C 82 % 86 % 1009,6 hPa 0,0 l/m 0,0 km/h (0 Bft) N 360 0 min 14,0 C 15,6 C 0,0 km/h (0 Bft)
20.06.2019 03:15 17,1 C 20,8 C 16,8 C 16,6 C 15,5 C 0,0 C 82 % 86 % 1009,6 hPa 0,0 l/m 0,0 km/h (0 Bft) N 360 0 min 14,0 C 15,5 C 0,0 km/h (0 Bft)
20.06.2019 03:20 16,9 C 20,8 C 16,7 C 16,4 C 15,5 C 0,0 C 83 % 86 % 1009,6 hPa 0,0 l/m 0,0 km/h (0 Bft) N 360 0 min 14,0 C 15,5 C 0,0 km/h (0 Bft)
20.06.2019 03:25 16,9 C 20,8 C 16,7 C 16,4 C 15,3 C 0,0 C 83 % 86 % 1009,3 hPa 0,0 l/m 0,0 km/h (0 Bft) W 270 0 min 14,0 C 15,3 C 0,0 km/h (0 Bft)
20.06.2019 03:30 16,9 C 20,8 C 16,6 C 16,3 C 15,2 C 0,0 C 83 % 86 % 1009,3 hPa 0,0 l/m 0,0 km/h (0 Bft) W 270 0 min 14,0 C 15,2 C 0,0 km/h (0 Bft)
20.06.2019 03:35 16,7 C 20,8 C 16,5 C 16,2 C 15,1 C 0,0 C 83 % 86 % 1009,3 hPa 0,0 l/m 0,0 km/h (0 Bft) S-SO 157 0 min 13,8 C 15,1 C 0,0 km/h (0 Bft)
20.06.2019 03:40 16,6 C 20,8 C 16,4 C 16,1 C 15,1 C 0,0 C 83 % 87 % 1009,3 hPa 0,0 l/m 0,0 km/h (0 Bft) O-NO 67 0 min 13,7 C 15,1 C 0,0 km/h (0 Bft)
20.06.2019 03:45 16,7 C 20,8 C 16,3 C 16,2 C 15,1 C 0,0 C 84 % 87 % 1009,4 hPa 0,0 l/m 0,0 km/h (0 Bft) O-NO 67 0 min 14,0 C 15,1 C 0,0 km/h (0 Bft)
20.06.2019 03:50 16,5 C 20,8 C 16,3 C 16,0 C 15,1 C 0,0 C 84 % 87 % 1009,4 hPa 0,0 l/m 0,0 km/h (0 Bft) O-NO 67 0 min 13,8 C 15,1 C 0,0 km/h (0 Bft)
20.06.2019 03:55 16,4 C 20,7 C 16,2 C 16,0 C 15,1 C 0,0 C 84 % 87 % 1009,4 hPa 0,0 l/m 0,0 km/h (0 Bft) W-SW 247 0 min 13,7 C 15,1 C 0,0 km/h (0 Bft)
20.06.2019 04:00 16,4 C 20,7 C 16,2 C 16,0 C 15,1 C 0,0 C 84 % 87 % 1009,4 hPa 0,0 l/m 0,0 km/h (0 Bft) W-SW 247 0 min 13,7 C 15,1 C 0,0 km/h (0 Bft)
20.06.2019 04:05 16,4 C 20,7 C 16,2 C 16,0 C 15,1 C 0,0 C 84 % 87 % 1009,5 hPa 0,0 l/m 0,0 km/h (0 Bft) W-SW 247 0 min 13,7 C 15,1 C 0,0 km/h (0 Bft)
20.06.2019 04:11 16,4 C 20,7 C 16,2 C 16,0 C 15,1 C 0,0 C 85 % 87 % 1009,5 hPa 0,0 l/m 0,0 km/h (0 Bft) N 0 0 min 13,9 C 15,1 C 0,0 km/h (0 Bft)
20.06.2019 04:24 16,7 C 20,5 C 16,7 C 16,4 C 15,7 C 0,0 C 86 % 87 % 1010,1 hPa 0,0 l/m 0,8 km/h (0 Bft) W 270 0 min 14,3 C 15,7 C 0,0 km/h (0 Bft)
20.06.2019 04:35 16,7 C 20,7 C 16,6 C 16,6 C 16,5 C 0,0 C 86 % 86 % 1010,1 hPa 0,0 l/m 1,4 km/h (1 Bft) NW 315 0 min 14,3 C 16,5 C 0,0 km/h (0 Bft)
20.06.2019 04:40 16,9 C 20,6 C 16,7 C 16,8 C 16,5 C 0,0 C 86 % 86 % 1010,1 hPa 0,0 l/m 1,6 km/h (1 Bft) O-NO 67 0 min 14,5 C 16,5 C 3,5 km/h (1 Bft)
20.06.2019 04:45 17,1 C 20,5 C 16,9 C 17,0 C 16,9 C 0,0 C 86 % 86 % 1009,9 hPa 0,0 l/m 1,4 km/h (1 Bft) SW 225 0 min 14,7 C 16,9 C 5,3 km/h (1 Bft)
20.06.2019 04:50 17,1 C 20,5 C 16,8 C 17,0 C 16,8 C 0,0 C 85 % 85 % 1009,9 hPa 0,0 l/m 1,3 km/h (1 Bft) O-SO 112 0 min 14,6 C 16,8 C 0,0 km/h (0 Bft)
20.06.2019 04:55 16,9 C 20,5 C 16,8 C 16,8 C 16,5 C 0,0 C 85 % 85 % 1009,9 hPa 0,0 l/m 0,0 km/h (0 Bft) N-NW 337 0 min 14,4 C 16,5 C 0,0 km/h (0 Bft)
20.06.2019 05:00 16,9 C 20,4 C 16,7 C 16,7 C 16,3 C 0,0 C 85 % 86 % 1009,9 hPa 0,0 l/m 0,2 km/h (0 Bft) S-SW 202 0 min 14,4 C 16,3 C 0,0 km/h (0 Bft)
20.06.2019 05:05 16,8 C 20,6 C 16,7 C 16,6 C 16,2 C 0,0 C 84 % 85 % 1009,9 hPa 0,0 l/m 0,6 km/h (0 Bft) NO 45 0 min 14,1 C 16,2 C 3,4 km/h (1 Bft)
20.06.2019 05:10 16,8 C 20,5 C 16,6 C 16,6 C 16,2 C 0,0 C 84 % 85 % 1009,9 hPa 0,0 l/m 0,8 km/h (0 Bft) W 270 0 min 14,1 C 16,2 C 0,0 km/h (0 Bft)
20.06.2019 05:15 16,9 C 20,5 C 16,6 C 16,7 C 16,3 C 0,0 C 85 % 85 % 1009,9 hPa 0,0 l/m 0,8 km/h (0 Bft) SO 135 0 min 14,4 C 16,3 C 0,0 km/h (0 Bft)
20.06.2019 05:20 16,8 C 20,5 C 16,7 C 16,7 C 16,5 C 0,0 C 85 % 86 % 1009,9 hPa 0,0 l/m 0,3 km/h (0 Bft) O-NO 67 0 min 14,3 C 16,5 C 0,0 km/h (0 Bft)
20.06.2019 05:25 16,9 C 20,5 C 17,0 C 16,9 C 16,8 C 0,0 C 85 % 86 % 1009,9 hPa 0,0 l/m 0,0 km/h (0 Bft) W-SW 247 0 min 14,4 C 16,8 C 0,0 km/h (0 Bft)
20.06.2019 05:30 16,9 C 20,5 C 16,8 C 16,8 C 16,6 C 0,0 C 85 % 86 % 1009,9 hPa 0,0 l/m 0,0 km/h (0 Bft) NW 315 0 min 14,4 C 16,6 C 0,0 km/h (0 Bft)
20.06.2019 05:35 17,0 C 20,7 C 16,6 C 16,7 C 16,2 C 0,0 C 85 % 87 % 1009,9 hPa 0,0 l/m 0,0 km/h (0 Bft) O 90 0 min 14,5 C 16,2 C 0,0 km/h (0 Bft)
20.06.2019 05:40 16,9 C 20,7 C 16,5 C 16,6 C 16,0 C 0,0 C 85 % 87 % 1009,9 hPa 0,0 l/m 0,0 km/h (0 Bft) O-NO 67 0 min 14,4 C 16,0 C 0,0 km/h (0 Bft)
20.06.2019 05:45 17,0 C 20,7 C 16,4 C 16,7 C 16,0 C 0,0 C 86 % 88 % 1010,2 hPa 0,0 l/m 0,0 km/h (0 Bft) N-NW 337 0 min 14,6 C 16,0 C 0,0 km/h (0 Bft)
20.06.2019 05:50 17,1 C 20,7 C 16,5 C 16,7 C 16,0 C 0,0 C 86 % 88 % 1010,2 hPa 0,0 l/m 0,0 km/h (0 Bft) N-NO 22 0 min 14,7 C 16,0 C 0,0 km/h (0 Bft)
20.06.2019 05:55 17,1 C 20,6 C 16,6 C 16,8 C 16,1 C 0,0 C 86 % 89 % 1010,2 hPa 0,0 l/m 0,0 km/h (0 Bft) SW 225 0 min 14,7 C 16,1 C 0,0 km/h (0 Bft)
20.06.2019 06:00 17,0 C 20,6 C 16,6 C 16,7 C 16,1 C 0,0 C 86 % 89 % 1010,2 hPa 0,0 l/m 0,0 km/h (0 Bft) SW 225 0 min 14,6 C 16,1 C 0,0 km/h (0 Bft)
20.06.2019 06:05 17,0 C 20,6 C 16,6 C 16,7 C 16,0 C 0,0 C 86 % 89 % 1011,0 hPa 0,0 l/m 0,0 km/h (0 Bft) S-SW 202 0 min 14,6 C 16,0 C 0,0 km/h (0 Bft)
20.06.2019 06:11 17,0 C 20,6 C 16,7 C 16,7 C 16,0 C 0,0 C 86 % 89 % 1011,0 hPa 0,0 l/m 0,0 km/h (0 Bft) N 0 0 min 14,6 C 16,0 C 0,0 km/h (0 Bft)
20.06.2019 06:26 17,1 C 20,5 C 16,9 C 16,9 C 16,4 C 0,0 C 86 % 90 % 1011,6 hPa 0,0 l/m 0,0 km/h (0 Bft) W-SW 247 0 min 14,7 C 16,4 C 0,0 km/h (0 Bft)
20.06.2019 06:27 17,1 C 20,5 C 16,9 C 16,9 C 16,4 C 0,0 C 86 % 90 % 1011,6 hPa 0,0 l/m 0,0 km/h (0 Bft) W-SW 247 0 min 14,7 C 16,4 C 0,0 km/h (0 Bft)
20.06.2019 06:40 17,3 C 20,3 C 17,4 C 17,2 C 17,1 C 0,0 C 86 % 89 % 1011,6 hPa 0,0 l/m 0,8 km/h (0 Bft) S 180 0 min 14,9 C 17,1 C 1,6 km/h (1 Bft)
20.06.2019 06:45 17,5 C 20,2 C 17,5 C 17,5 C 17,4 C 0,0 C 86 % 89 % 1011,8 hPa 0,0 l/m 0,6 km/h (0 Bft) W-SW 247 0 min 15,1 C 17,4 C 5,8 km/h (2 Bft)
20.06.2019 06:50 17,6 C 20,2 C 17,5 C 17,7 C 17,7 C 0,1 C 86 % 89 % 1011,8 hPa 0,0 l/m 0,5 km/h (0 Bft) S-SW 202 0 min 15,2 C 17,7 C 0,0 km/h (0 Bft)
20.06.2019 06:55 17,8 C 20,2 C 17,7 C 18,1 C 18,1 C 0,3 C 85 % 88 % 1011,8 hPa 0,0 l/m 0,5 km/h (0 Bft) S 180 0 min 15,2 C 18,1 C 1,6 km/h (1 Bft)
20.06.2019 07:00 18,0 C 20,2 C 17,9 C 18,5 C 18,5 C 0,5 C 85 % 88 % 1011,8 hPa 0,0 l/m 1,0 km/h (0 Bft) S 180 0 min 15,4 C 18,5 C 4,5 km/h (1 Bft)
20.06.2019 07:05 18,2 C 20,2 C 17,9 C 18,8 C 18,8 C 0,6 C 84 % 88 % 1012,4 hPa 0,0 l/m 1,1 km/h (1 Bft) W-SW 247 0 min 15,4 C 18,8 C 0,0 km/h (0 Bft)
20.06.2019 07:10 18,4 C 20,2 C 18,0 C 18,9 C 18,9 C 0,5 C 84 % 87 % 1012,4 hPa 0,0 l/m 1,1 km/h (1 Bft) SW 225 0 min 15,6 C 18,9 C 0,0 km/h (0 Bft)
20.06.2019 07:15 18,4 C 20,2 C 18,1 C 19,1 C 19,1 C 0,7 C 83 % 86 % 1012,4 hPa 0,0 l/m 1,3 km/h (1 Bft) SW 225 0 min 15,5 C 19,1 C 6,9 km/h (2 Bft)
20.06.2019 07:20 18,5 C 20,1 C 18,1 C 19,1 C 19,1 C 0,6 C 82 % 85 % 1012,4 hPa 0,0 l/m 1,6 km/h (1 Bft) SO 135 0 min 15,4 C 19,1 C 3,5 km/h (1 Bft)
20.06.2019 07:25 18,6 C 20,1 C 18,1 C 19,1 C 19,1 C 0,5 C 80 % 85 % 1012,4 hPa 0,0 l/m 1,3 km/h (1 Bft) S 180 0 min 15,1 C 19,1 C 0,0 km/h (0 Bft)
20.06.2019 07:30 18,6 C 20,1 C 18,2 C 19,1 C 19,1 C 0,5 C 80 % 85 % 1012,4 hPa 0,0 l/m 1,0 km/h (0 Bft) S 180 0 min 15,1 C 19,1 C 0,0 km/h (0 Bft)
20.06.2019 07:35 18,7 C 20,1 C 18,2 C 19,1 C 19,1 C 0,4 C 80 % 84 % 1012,4 hPa 0,0 l/m 0,6 km/h (0 Bft) S 180 0 min 15,2 C 19,1 C 4,3 km/h (1 Bft)
20.06.2019 07:40 18,7 C 20,0 C 18,2 C 19,1 C 19,1 C 0,4 C 79 % 84 % 1012,4 hPa 0,0 l/m 0,3 km/h (0 Bft) SW 225 0 min 15,0 C 19,1 C 1,8 km/h (1 Bft)
20.06.2019 07:45 18,8 C 20,0 C 18,2 C 19,0 C 19,0 C 0,2 C 79 % 84 % 1012,4 hPa 0,0 l/m 0,3 km/h (0 Bft) S-SW 202 0 min 15,1 C 19,0 C 0,0 km/h (0 Bft)
20.06.2019 07:50 18,8 C 20,0 C 18,2 C 18,9 C 18,9 C 0,1 C 79 % 84 % 1012,4 hPa 0,0 l/m 0,2 km/h (0 Bft) SW 225 0 min 15,1 C 18,9 C 0,0 km/h (0 Bft)
20.06.2019 07:55 18,8 C 20,1 C 18,1 C 18,8 C 18,8 C 0,0 C 78 % 83 % 1012,4 hPa 0,0 l/m 0,3 km/h (0 Bft) S-SW 202 0 min 14,9 C 18,8 C 3,7 km/h (1 Bft)
20.06.2019 08:00 18,7 C 20,1 C 18,1 C 18,8 C 18,8 C 0,1 C 78 % 83 % 1012,4 hPa 0,0 l/m 0,5 km/h (0 Bft) S-SO 157 0 min 14,8 C 18,8 C 4,5 km/h (1 Bft)
20.06.2019 08:05 18,7 C 20,1 C 18,0 C 18,6 C 18,3 C 0,0 C 78 % 83 % 1012,6 hPa 0,0 l/m 0,8 km/h (0 Bft) W-NW 292 0 min 14,8 C 18,3 C 0,0 km/h (0 Bft)
20.06.2019 08:11 18,7 C 20,1 C 18,0 C 18,4 C 17,8 C 0,0 C 78 % 83 % 1012,6 hPa 0,0 l/m 0,6 km/h (0 Bft) N 0 0 min 14,8 C 17,8 C 0,0 km/h (0 Bft)
20.06.2019 08:27 18,7 C 20,0 C 18,3 C 18,8 C 18,8 C 0,1 C 79 % 84 % 1012,1 hPa 0,0 l/m 0,0 km/h (0 Bft) W-SW 247 0 min 15,0 C 18,8 C 0,0 km/h (0 Bft)
20.06.2019 08:35 18,9 C 20,0 C 18,6 C 20,4 C 20,4 C 1,5 C 80 % 84 % 1012,1 hPa 0,0 l/m 0,2 km/h (0 Bft) W-SW 247 0 min 15,4 C 20,4 C 0,0 km/h (0 Bft)
20.06.2019 08:40 19,1 C 19,9 C 18,7 C 20,8 C 20,8 C 1,7 C 80 % 83 % 1012,1 hPa 0,0 l/m 0,2 km/h (0 Bft) S 180 0 min 15,6 C 20,8 C 0,0 km/h (0 Bft)
20.06.2019 08:45 19,1 C 19,9 C 18,7 C 20,9 C 20,9 C 1,8 C 79 % 83 % 1012,0 hPa 0,0 l/m 0,0 km/h (0 Bft) S-SO 157 0 min 15,4 C 20,9 C 0,0 km/h (0 Bft)
20.06.2019 08:50 19,1 C 19,9 C 18,7 C 20,8 C 20,8 C 1,7 C 79 % 84 % 1012,0 hPa 0,0 l/m 0,2 km/h (0 Bft) S 180 0 min 15,4 C 20,8 C 0,0 km/h (0 Bft)
20.06.2019 08:55 19,2 C 19,9 C 18,7 C 20,8 C 20,8 C 1,6 C 79 % 82 % 1012,0 hPa 0,0 l/m 0,3 km/h (0 Bft) SO 135 0 min 15,5 C 20,8 C 0,0 km/h (0 Bft)
20.06.2019 09:00 19,2 C 19,9 C 18,8 C 20,9 C 20,9 C 1,7 C 79 % 82 % 1012,0 hPa 0,0 l/m 0,2 km/h (0 Bft) SW 225 0 min 15,5 C 20,9 C 0,0 km/h (0 Bft)
20.06.2019 09:05 19,3 C 19,9 C 18,9 C 21,3 C 21,3 C 2,0 C 79 % 83 % 1011,9 hPa 0,0 l/m 0,0 km/h (0 Bft) SW 225 0 min 15,6 C 21,3 C 0,0 km/h (0 Bft)
20.06.2019 09:10 19,5 C 19,9 C 19,0 C 21,5 C 21,5 C 2,0 C 79 % 82 % 1011,9 hPa 0,0 l/m 0,0 km/h (0 Bft) S 180 0 min 15,8 C 21,5 C 0,0 km/h (0 Bft)
20.06.2019 09:15 19,6 C 19,9 C 19,1 C 22,0 C 22,0 C 2,4 C 79 % 82 % 1011,9 hPa 0,0 l/m 0,0 km/h (0 Bft) O 90 0 min 15,9 C 22,0 C 0,0 km/h (0 Bft)
20.06.2019 09:20 19,7 C 19,9 C 19,3 C 22,2 C 22,2 C 2,5 C 79 % 82 % 1011,9 hPa 0,0 l/m 0,0 km/h (0 Bft) S 180 0 min 16,0 C 22,2 C 0,0 km/h (0 Bft)
20.06.2019 09:25 19,9 C 19,9 C 19,4 C 23,2 C 23,2 C 3,3 C 79 % 82 % 1012,1 hPa 0,0 l/m 0,0 km/h (0 Bft) W 270 5 min 16,1 C 23,2 C 0,0 km/h (0 Bft)
20.06.2019 09:30 20,0 C 19,9 C 19,5 C 24,0 C 24,0 C 4,0 C 79 % 81 % 1012,1 hPa 0,0 l/m 0,0 km/h (0 Bft) SO 135 5 min 16,2 C 24,0 C 0,0 km/h (0 Bft)
20.06.2019 09:35 20,2 C 19,9 C 19,6 C 25,0 C 25,0 C 4,8 C 78 % 81 % 1012,1 hPa 0,0 l/m 0,0 km/h (0 Bft) NO 45 5 min 16,2 C 25,0 C 0,0 km/h (0 Bft)
20.06.2019 09:40 20,4 C 19,9 C 19,9 C 26,4 C 26,4 C 6,0 C 79 % 80 % 1012,1 hPa 0,0 l/m 0,0 km/h (0 Bft) S 180 5 min 16,6 C 26,4 C 0,0 km/h (0 Bft)
20.06.2019 09:45 20,9 C 19,9 C 20,3 C 27,3 C 27,3 C 6,4 C 78 % 81 % 1011,9 hPa 0,0 l/m 0,3 km/h (0 Bft) O-SO 112 5 min 16,9 C 27,3 C 0,0 km/h (0 Bft)
20.06.2019 09:50 21,2 C 19,9 C 20,5 C 27,6 C 27,6 C 6,4 C 78 % 80 % 1011,9 hPa 0,0 l/m 0,3 km/h (0 Bft) S 180 5 min 17,2 C 27,6 C 0,0 km/h (0 Bft)
20.06.2019 09:55 21,5 C 19,9 C 20,7 C 27,3 C 27,3 C 5,8 C 76 % 79 % 1011,9 hPa 0,0 l/m 0,2 km/h (0 Bft) SW 225 5 min 17,1 C 27,3 C 0,0 km/h (0 Bft)
20.06.2019 10:00 21,6 C 19,9 C 20,7 C 27,2 C 27,2 C 5,6 C 75 % 79 % 1011,9 hPa 0,0 l/m 0,2 km/h (0 Bft) S 180 5 min 17,0 C 27,2 C 0,0 km/h (0 Bft)
20.06.2019 10:05 21,7 C 19,9 C 20,9 C 26,5 C 26,5 C 4,8 C 75 % 79 % 1012,1 hPa 0,0 l/m 0,2 km/h (0 Bft) W 270 5 min 17,1 C 26,5 C 0,0 km/h (0 Bft)
20.06.2019 10:11 21,8 C 19,9 C 21,0 C 26,2 C 26,2 C 4,4 C 75 % 78 % 1012,1 hPa 0,0 l/m 0,2 km/h (0 Bft) N 0 6 min 17,2 C 26,2 C 3,2 km/h (1 Bft)
20.06.2019 10:26 21,8 C 19,9 C 21,0 C 24,8 C 24,8 C 3,0 C 73 % 77 % 1012,2 hPa 0,0 l/m 0,6 km/h (0 Bft) S 180 0 min 16,7 C 24,8 C 1,6 km/h (1 Bft)
20.06.2019 10:40 22,3 C 19,8 C 21,4 C 28,3 C 28,3 C 6,0 C 73 % 76 % 1012,2 hPa 0,0 l/m 0,6 km/h (0 Bft) W 270 14 min 17,2 C 28,3 C 0,0 km/h (0 Bft)
20.06.2019 10:45 22,6 C 19,8 C 21,5 C 30,6 C 30,6 C 8,0 C 73 % 76 % 1012,4 hPa 0,0 l/m 1,1 km/h (1 Bft) S-SO 157 5 min 17,5 C 30,6 C 0,0 km/h (0 Bft)
20.06.2019 10:50 23,0 C 19,8 C 21,7 C 31,7 C 31,7 C 8,7 C 72 % 76 % 1012,4 hPa 0,0 l/m 1,0 km/h (0 Bft) S 180 5 min 17,7 C 31,7 C 5,6 km/h (1 Bft)
20.06.2019 10:55 23,5 C 19,8 C 21,8 C 32,0 C 32,0 C 8,5 C 71 % 76 % 1012,4 hPa 0,0 l/m 1,0 km/h (0 Bft) S 180 5 min 17,9 C 32,0 C 1,9 km/h (1 Bft)
20.06.2019 11:00 23,6 C 19,8 C 21,9 C 32,5 C 32,5 C 8,9 C 70 % 75 % 1012,4 hPa 0,0 l/m 1,0 km/h (0 Bft) SO 135 5 min 17,8 C 32,5 C 0,0 km/h (0 Bft)
20.06.2019 11:05 23,8 C 19,8 C 22,2 C 32,7 C 32,7 C 8,9 C 68 % 74 % 1012,2 hPa 0,0 l/m 1,1 km/h (1 Bft) S 180 5 min 17,5 C 32,7 C 2,7 km/h (1 Bft)
20.06.2019 11:10 23,9 C 19,8 C 22,3 C 32,9 C 32,9 C 9,0 C 67 % 73 % 1012,2 hPa 0,0 l/m 1,4 km/h (1 Bft) S-SO 157 5 min 17,4 C 32,9 C 0,0 km/h (0 Bft)
20.06.2019 11:15 23,7 C 19,8 C 22,3 C 31,1 C 31,1 C 7,4 C 67 % 72 % 1012,2 hPa 0,0 l/m 1,4 km/h (1 Bft) SO 135 5 min 17,2 C 31,1 C 8,0 km/h (2 Bft)
20.06.2019 11:20 23,9 C 19,8 C 22,4 C 30,4 C 30,4 C 6,5 C 67 % 73 % 1012,2 hPa 0,0 l/m 1,0 km/h (0 Bft) S 180 5 min 17,4 C 30,4 C 2,4 km/h (1 Bft)
20.06.2019 11:25 24,0 C 19,8 C 22,7 C 30,8 C 30,8 C 6,8 C 67 % 72 % 1012,2 hPa 0,0 l/m 1,0 km/h (0 Bft) SW 225 5 min 17,5 C 30,8 C 1,8 km/h (1 Bft)
20.06.2019 11:30 24,3 C 19,8 C 22,9 C 31,1 C 31,1 C 6,8 C 66 % 71 % 1012,2 hPa 0,0 l/m 1,3 km/h (1 Bft) S 180 5 min 17,5 C 31,1 C 0,0 km/h (0 Bft)
20.06.2019 11:35 24,2 C 19,8 C 23,0 C 30,5 C 30,5 C 6,3 C 65 % 70 % 1012,2 hPa 0,0 l/m 1,8 km/h (1 Bft) N 360 5 min 17,2 C 30,5 C 2,3 km/h (1 Bft)
20.06.2019 11:40 24,3 C 19,9 C 23,1 C 29,9 C 29,9 C 5,6 C 65 % 70 % 1012,2 hPa 0,0 l/m 1,4 km/h (1 Bft) W-SW 247 5 min 17,3 C 29,9 C 2,3 km/h (1 Bft)
20.06.2019 11:45 24,3 C 19,9 C 23,3 C 29,8 C 29,8 C 5,5 C 64 % 68 % 1012,2 hPa 0,0 l/m 1,3 km/h (1 Bft) S-SO 157 5 min 17,0 C 29,8 C 5,5 km/h (1 Bft)
20.06.2019 11:50 24,5 C 19,9 C 23,6 C 29,7 C 29,7 C 5,2 C 63 % 67 % 1012,2 hPa 0,0 l/m 2,3 km/h (1 Bft) W-SW 247 5 min 17,0 C 29,7 C 5,6 km/h (1 Bft)
20.06.2019 11:55 24,5 C 19,8 C 23,8 C 29,8 C 29,8 C 5,3 C 63 % 65 % 1012,2 hPa 0,0 l/m 2,6 km/h (1 Bft) S-SO 157 5 min 17,0 C 29,8 C 3,4 km/h (1 Bft)
20.06.2019 12:00 24,7 C 19,8 C 23,9 C 29,6 C 29,6 C 4,9 C 63 % 67 % 1012,2 hPa 0,0 l/m 2,3 km/h (1 Bft) S-SW 202 5 min 17,2 C 29,6 C 2,3 km/h (1 Bft)
20.06.2019 12:05 24,7 C 19,8 C 24,0 C 29,3 C 29,3 C 4,6 C 63 % 66 % 1012,6 hPa 0,0 l/m 2,1 km/h (1 Bft) S-SO 157 5 min 17,2 C 29,3 C 4,3 km/h (1 Bft)
20.06.2019 12:11 24,5 C 19,8 C 24,0 C 28,9 C 28,9 C 4,4 C 62 % 66 % 1012,6 hPa 0,0 l/m 1,9 km/h (1 Bft) N 0 6 min 16,7 C 28,9 C 1,9 km/h (1 Bft)
20.06.2019 12:27 24,8 C 19,8 C 24,3 C 29,1 C 29,1 C 4,3 C 63 % 65 % 1012,4 hPa 0,0 l/m 2,3 km/h (1 Bft) S 180 16 min 17,3 C 29,1 C 1,8 km/h (1 Bft)
20.06.2019 12:40 25,0 C 19,8 C 24,5 C 29,4 C 29,4 C 4,4 C 60 % 62 % 1012,4 hPa 0,0 l/m 2,1 km/h (1 Bft) W-SW 247 13 min 16,7 C 29,4 C 9,2 km/h (2 Bft)
20.06.2019 12:45 24,9 C 19,8 C 24,5 C 29,1 C 29,1 C 4,2 C 60 % 62 % 1012,6 hPa 0,0 l/m 2,4 km/h (1 Bft) SW 225 5 min 16,6 C 29,1 C 5,8 km/h (2 Bft)
20.06.2019 12:50 24,8 C 19,9 C 24,6 C 29,3 C 29,3 C 4,5 C 61 % 63 % 1012,6 hPa 0,0 l/m 1,4 km/h (1 Bft) W-SW 247 5 min 16,8 C 29,3 C 4,7 km/h (1 Bft)
20.06.2019 12:55 25,4 C 19,9 C 25,1 C 31,0 C 31,0 C 5,6 C 60 % 62 % 1012,6 hPa 0,0 l/m 2,4 km/h (1 Bft) W 270 5 min 17,1 C 31,0 C 5,8 km/h (2 Bft)
20.06.2019 13:00 25,8 C 19,9 C 25,4 C 31,5 C 31,5 C 5,7 C 59 % 62 % 1012,6 hPa 0,0 l/m 2,7 km/h (1 Bft) W 270 5 min 17,2 C 31,5 C 2,3 km/h (1 Bft)
20.06.2019 13:05 26,1 C 19,9 C 25,9 C 32,1 C 32,1 C 6,0 C 56 % 59 % 1012,8 hPa 0,0 l/m 2,6 km/h (1 Bft) SW 225 5 min 16,6 C 32,1 C 6,8 km/h (2 Bft)
20.06.2019 13:10 26,1 C 19,9 C 26,2 C 32,7 C 32,7 C 6,6 C 56 % 57 % 1012,8 hPa 0,0 l/m 2,4 km/h (1 Bft) S 180 5 min 16,6 C 32,7 C 4,2 km/h (1 Bft)
20.06.2019 13:15 26,5 C 19,9 C 26,9 C 33,4 C 33,4 C 6,9 C 56 % 57 % 1012,8 hPa 0,0 l/m 2,3 km/h (1 Bft) SW 225 5 min 17,0 C 33,4 C 1,8 km/h (1 Bft)
20.06.2019 13:20 26,7 C 19,9 C 26,8 C 33,3 C 33,3 C 6,6 C 54 % 55 % 1012,8 hPa 0,0 l/m 2,6 km/h (1 Bft) SO 135 5 min 16,6 C 33,3 C 7,1 km/h (2 Bft)
20.06.2019 13:25 26,5 C 19,9 C 26,3 C 32,8 C 32,8 C 6,3 C 54 % 56 % 1012,6 hPa 0,0 l/m 2,7 km/h (1 Bft) W 270 5 min 16,4 C 32,8 C 5,3 km/h (1 Bft)
20.06.2019 13:30 26,5 C 19,9 C 26,1 C 32,4 C 32,4 C 5,9 C 54 % 55 % 1012,6 hPa 0,0 l/m 3,1 km/h (1 Bft) W-SW 247 5 min 16,4 C 32,4 C 4,0 km/h (1 Bft)
20.06.2019 13:35 26,1 C 19,9 C 25,6 C 30,3 C 30,3 C 4,2 C 54 % 56 % 1012,6 hPa 0,0 l/m 2,9 km/h (1 Bft) W-SW 247 5 min 16,0 C 30,3 C 11,6 km/h (2 Bft)
20.06.2019 13:40 26,1 C 19,9 C 25,7 C 30,6 C 30,6 C 4,5 C 54 % 56 % 1012,6 hPa 0,0 l/m 2,3 km/h (1 Bft) SW 225 5 min 16,0 C 30,6 C 2,9 km/h (1 Bft)
20.06.2019 13:45 26,5 C 20,0 C 26,0 C 31,9 C 31,9 C 5,4 C 54 % 56 % 1012,5 hPa 0,0 l/m 2,1 km/h (1 Bft) S-SO 157 5 min 16,4 C 31,9 C 3,5 km/h (1 Bft)
20.06.2019 13:50 26,7 C 20,0 C 26,1 C 32,5 C 32,5 C 5,8 C 53 % 52 % 1012,5 hPa 0,0 l/m 2,6 km/h (1 Bft) S-SO 157 5 min 16,3 C 32,5 C 3,1 km/h (1 Bft)
20.06.2019 13:55 27,1 C 20,0 C 26,2 C 33,0 C 33,0 C 5,9 C 53 % 55 % 1012,5 hPa 0,0 l/m 2,9 km/h (1 Bft) W 270 5 min 16,7 C 33,0 C 6,0 km/h (2 Bft)
20.06.2019 14:00 27,0 C 20,0 C 26,3 C 32,8 C 32,8 C 5,8 C 53 % 55 % 1012,5 hPa 0,0 l/m 2,7 km/h (1 Bft) S 180 5 min 16,6 C 32,8 C 3,2 km/h (1 Bft)
20.06.2019 14:05 26,7 C 20,0 C 26,0 C 31,9 C 31,9 C 5,2 C 52 % 55 % 1012,7 hPa 0,0 l/m 2,7 km/h (1 Bft) S-SO 157 5 min 16,0 C 31,9 C 1,6 km/h (1 Bft)
20.06.2019 14:11 26,5 C 20,0 C 26,1 C 31,3 C 31,3 C 4,8 C 53 % 54 % 1012,7 hPa 0,0 l/m 2,9 km/h (1 Bft) N 0 6 min 16,1 C 31,3 C 5,8 km/h (2 Bft)
20.06.2019 14:12 26,3 C 20,0 C 26,0 C 31,0 C 31,0 C 4,7 C 53 % 55 % 1012,7 hPa 0,0 l/m 2,7 km/h (1 Bft) S-SW 202 1 min 15,9 C 31,0 C 2,6 km/h (1 Bft)
20.06.2019 14:17 26,4 C 20,0 C 26,3 C 31,3 C 31,3 C 4,9 C 54 % 53 % 1012,7 hPa 0,0 l/m 2,9 km/h (1 Bft) S-SO 157 5 min 16,3 C 31,3 C 2,6 km/h (1 Bft)
20.06.2019 14:22 26,6 C 20,0 C 26,6 C 31,9 C 31,9 C 5,3 C 53 % 55 % 1012,6 hPa 0,0 l/m 2,6 km/h (1 Bft) S-SO 157 5 min 16,2 C 31,9 C 2,4 km/h (1 Bft)
20.06.2019 14:27 26,7 C 20,0 C 26,8 C 32,3 C 32,3 C 5,6 C 53 % 54 % 1012,6 hPa 0,0 l/m 2,7 km/h (1 Bft) S 180 5 min 16,3 C 32,3 C 4,0 km/h (1 Bft)
20.06.2019 14:31 26,7 C 20,0 C 26,8 C 32,3 C 32,3 C 5,6 C 53 % 54 % 1012,6 hPa 0,0 l/m 2,7 km/h (1 Bft) S 180 4 min 16,3 C 32,3 C 4,0 km/h (1 Bft)
20.06.2019 14:35 26,8 C 20,0 C 26,8 C 32,4 C 32,4 C 5,6 C 54 % 55 % 1012,6 hPa 0,0 l/m 2,9 km/h (1 Bft) NW 315 4 min 16,7 C 32,4 C 3,7 km/h (1 Bft)
20.06.2019 14:40 27,0 C 20,1 C 26,6 C 32,3 C 32,3 C 5,3 C 54 % 55 % 1012,6 hPa 0,0 l/m 2,6 km/h (1 Bft) W-NW 292 5 min 16,9 C 32,3 C 5,0 km/h (1 Bft)
20.06.2019 14:45 27,2 C 20,1 C 26,7 C 32,4 C 32,4 C 5,2 C 53 % 55 % 1012,4 hPa 0,0 l/m 2,6 km/h (1 Bft) SO 135 5 min 16,8 C 32,4 C 2,1 km/h (1 Bft)
20.06.2019 14:50 27,4 C 20,1 C 26,6 C 32,8 C 32,8 C 5,4 C 53 % 53 % 1012,4 hPa 0,0 l/m 3,4 km/h (1 Bft) W 270 5 min 17,0 C 32,8 C 6,4 km/h (2 Bft)
20.06.2019 14:55 27,1 C 20,1 C 26,3 C 32,2 C 32,2 C 5,1 C 52 % 54 % 1012,4 hPa 0,0 l/m 2,9 km/h (1 Bft) S 180 5 min 16,4 C 32,2 C 3,9 km/h (1 Bft)
20.06.2019 15:00 26,9 C 20,1 C 26,3 C 31,4 C 31,4 C 4,5 C 53 % 56 % 1012,4 hPa 0,0 l/m 1,9 km/h (1 Bft) S-SO 157 5 min 16,5 C 31,4 C 1,8 km/h (1 Bft)
20.06.2019 15:05 27,3 C 20,1 C 26,7 C 32,5 C 32,5 C 5,2 C 54 % 56 % 1012,3 hPa 0,0 l/m 1,6 km/h (1 Bft) S 180 5 min 17,2 C 32,5 C 2,1 km/h (1 Bft)
20.06.2019 15:10 27,6 C 20,1 C 26,7 C 33,2 C 33,2 C 5,6 C 54 % 55 % 1012,3 hPa 0,0 l/m 1,9 km/h (1 Bft) SW 225 5 min 17,4 C 33,2 C 3,5 km/h (1 Bft)
20.06.2019 15:15 28,0 C 20,2 C 26,8 C 33,3 C 33,3 C 5,3 C 53 % 55 % 1012,3 hPa 0,0 l/m 2,4 km/h (1 Bft) N 360 5 min 17,5 C 33,3 C 2,3 km/h (1 Bft)
20.06.2019 15:20 27,9 C 20,2 C 27,0 C 33,4 C 33,4 C 5,5 C 52 % 55 % 1012,3 hPa 0,0 l/m 2,3 km/h (1 Bft) W 270 5 min 17,1 C 33,4 C 4,5 km/h (1 Bft)
20.06.2019 15:25 27,6 C 20,2 C 27,3 C 33,6 C 33,6 C 6,0 C 52 % 55 % 1012,4 hPa 0,0 l/m 2,7 km/h (1 Bft) W-NW 292 5 min 16,8 C 33,6 C 3,9 km/h (1 Bft)
20.06.2019 15:30 27,4 C 20,2 C 27,2 C 33,4 C 33,4 C 6,0 C 53 % 54 % 1012,4 hPa 0,0 l/m 3,1 km/h (1 Bft) W-SW 247 5 min 17,0 C 33,4 C 6,1 km/h (2 Bft)
20.06.2019 15:35 27,3 C 20,2 C 26,6 C 32,6 C 32,6 C 5,3 C 53 % 55 % 1012,4 hPa 0,0 l/m 1,9 km/h (1 Bft) S 180 5 min 16,9 C 32,6 C 1,9 km/h (1 Bft)
20.06.2019 15:40 27,1 C 20,2 C 26,7 C 31,8 C 31,8 C 4,7 C 54 % 55 % 1012,4 hPa 0,0 l/m 1,1 km/h (1 Bft) S 180 5 min 17,0 C 31,8 C 2,9 km/h (1 Bft)
20.06.2019 15:45 27,3 C 20,2 C 27,1 C 33,3 C 33,3 C 6,0 C 54 % 56 % 1012,3 hPa 0,0 l/m 1,4 km/h (1 Bft) S-SW 202 5 min 17,2 C 33,3 C 3,9 km/h (1 Bft)
20.06.2019 15:50 27,3 C 20,2 C 27,3 C 33,8 C 33,8 C 6,5 C 52 % 53 % 1012,3 hPa 0,0 l/m 2,4 km/h (1 Bft) SW 225 5 min 16,6 C 33,8 C 5,8 km/h (2 Bft)
20.06.2019 15:55 27,3 C 20,3 C 27,5 C 33,9 C 33,9 C 6,6 C 52 % 53 % 1012,3 hPa 0,0 l/m 3,2 km/h (1 Bft) W-SW 247 5 min 16,6 C 33,9 C 1,8 km/h (1 Bft)
20.06.2019 16:00 27,3 C 20,3 C 27,5 C 34,1 C 34,1 C 6,8 C 51 % 52 % 1012,3 hPa 0,0 l/m 2,7 km/h (1 Bft) S-SO 157 5 min 16,3 C 34,1 C 2,3 km/h (1 Bft)
20.06.2019 16:05 27,1 C 20,3 C 27,3 C 34,0 C 34,0 C 6,9 C 52 % 53 % 1012,1 hPa 0,0 l/m 1,9 km/h (1 Bft) W 270 5 min 16,4 C 34,0 C 3,4 km/h (1 Bft)
20.06.2019 16:11 27,1 C 20,3 C 27,3 C 34,2 C 34,2 C 7,1 C 53 % 54 % 1012,1 hPa 0,0 l/m 1,4 km/h (1 Bft) N 0 6 min 16,7 C 34,2 C 0,0 km/h (0 Bft)
20.06.2019 16:26 26,8 C 20,3 C 27,1 C 32,7 C 32,7 C 5,9 C 52 % 54 % 1012,0 hPa 0,0 l/m 1,3 km/h (1 Bft) S-SO 157 15 min 16,1 C 32,7 C 0,0 km/h (0 Bft)
20.06.2019 16:27 26,8 C 20,3 C 27,1 C 32,7 C 32,7 C 5,9 C 52 % 54 % 1012,0 hPa 0,0 l/m 1,3 km/h (1 Bft) S-SO 157 1 min 16,1 C 32,7 C 0,0 km/h (0 Bft)
20.06.2019 16:35 27,1 C 20,3 C 27,7 C 34,2 C 34,2 C 7,1 C 50 % 48 % 1012,0 hPa 0,0 l/m 1,9 km/h (1 Bft) W-NW 292 8 min 15,8 C 34,2 C 2,9 km/h (1 Bft)
20.06.2019 16:40 27,1 C 20,4 C 27,7 C 34,2 C 34,2 C 7,1 C 50 % 49 % 1012,0 hPa 0,0 l/m 2,1 km/h (1 Bft) O-SO 112 5 min 15,8 C 34,2 C 0,0 km/h (0 Bft)
20.06.2019 16:45 27,1 C 20,4 C 27,6 C 34,2 C 34,2 C 7,1 C 49 % 49 % 1011,9 hPa 0,0 l/m 1,9 km/h (1 Bft) SW 225 5 min 15,4 C 34,2 C 3,2 km/h (1 Bft)
20.06.2019 16:50 26,9 C 20,4 C 27,1 C 33,0 C 33,0 C 6,1 C 49 % 49 % 1011,9 hPa 0,0 l/m 1,9 km/h (1 Bft) SW 225 5 min 15,3 C 33,0 C 1,6 km/h (1 Bft)
20.06.2019 16:55 26,8 C 20,4 C 27,1 C 31,9 C 31,9 C 5,1 C 49 % 49 % 1011,9 hPa 0,0 l/m 2,1 km/h (1 Bft) W 270 5 min 15,2 C 31,9 C 3,4 km/h (1 Bft)
20.06.2019 17:00 26,8 C 20,4 C 27,3 C 32,4 C 32,4 C 5,6 C 49 % 49 % 1011,9 hPa 0,0 l/m 1,9 km/h (1 Bft) S 180 5 min 15,2 C 32,4 C 4,8 km/h (1 Bft)
20.06.2019 17:05 26,9 C 20,4 C 27,5 C 33,4 C 33,4 C 6,5 C 50 % 48 % 1011,9 hPa 0,0 l/m 1,8 km/h (1 Bft) S-SW 202 5 min 15,6 C 33,4 C 1,6 km/h (1 Bft)
20.06.2019 17:10 27,1 C 20,4 C 27,5 C 34,1 C 34,1 C 7,0 C 50 % 47 % 1011,9 hPa 0,0 l/m 1,6 km/h (1 Bft) O-NO 67 5 min 15,8 C 34,1 C 0,0 km/h (0 Bft)
20.06.2019 17:15 27,3 C 20,4 C 27,5 C 34,7 C 34,7 C 7,4 C 49 % 49 % 1011,9 hPa 0,0 l/m 1,8 km/h (1 Bft) S 180 5 min 15,6 C 34,7 C 3,1 km/h (1 Bft)
20.06.2019 17:20 27,5 C 20,4 C 27,5 C 34,7 C 34,7 C 7,2 C 50 % 50 % 1011,9 hPa 0,0 l/m 2,3 km/h (1 Bft) W-SW 247 5 min 16,1 C 34,7 C 4,5 km/h (1 Bft)
20.06.2019 17:25 27,3 C 20,4 C 27,0 C 33,1 C 33,1 C 5,8 C 49 % 50 % 1011,7 hPa 0,0 l/m 2,4 km/h (1 Bft) W-SW 247 5 min 15,6 C 33,1 C 3,2 km/h (1 Bft)
20.06.2019 17:30 27,0 C 20,4 C 26,6 C 31,4 C 31,4 C 4,4 C 49 % 50 % 1011,7 hPa 0,0 l/m 2,4 km/h (1 Bft) SW 225 5 min 15,4 C 31,4 C 2,7 km/h (1 Bft)
20.06.2019 17:35 26,8 C 20,4 C 26,5 C 30,1 C 30,1 C 3,3 C 50 % 53 % 1011,7 hPa 0,0 l/m 1,6 km/h (1 Bft) S 180 5 min 15,5 C 30,1 C 0,0 km/h (0 Bft)
20.06.2019 17:40 26,8 C 20,4 C 26,7 C 31,2 C 31,2 C 4,4 C 51 % 53 % 1011,7 hPa 0,0 l/m 1,0 km/h (0 Bft) S 180 5 min 15,8 C 31,2 C 2,7 km/h (1 Bft)
20.06.2019 17:45 27,1 C 20,4 C 26,7 C 32,5 C 32,5 C 5,4 C 51 % 52 % 1011,5 hPa 0,0 l/m 0,5 km/h (0 Bft) S 180 5 min 16,1 C 32,5 C 0,0 km/h (0 Bft)
20.06.2019 17:50 26,9 C 20,4 C 26,4 C 31,5 C 31,5 C 4,6 C 51 % 53 % 1011,5 hPa 0,0 l/m 0,5 km/h (0 Bft) S-SO 157 5 min 15,9 C 31,5 C 0,0 km/h (0 Bft)
20.06.2019 17:55 26,8 C 20,4 C 26,3 C 31,0 C 31,0 C 4,2 C 52 % 53 % 1011,5 hPa 0,0 l/m 0,6 km/h (0 Bft) SO 135 5 min 16,1 C 31,0 C 4,7 km/h (1 Bft)
20.06.2019 18:00 26,9 C 20,4 C 26,3 C 30,8 C 30,8 C 3,9 C 52 % 55 % 1011,5 hPa 0,0 l/m 0,8 km/h (0 Bft) S-SO 157 5 min 16,2 C 30,8 C 2,4 km/h (1 Bft)
20.06.2019 18:05 26,9 C 20,5 C 26,1 C 30,0 C 30,0 C 3,1 C 52 % 55 % 1011,6 hPa 0,0 l/m 1,0 km/h (0 Bft) S-SO 157 0 min 16,2 C 30,0 C 0,0 km/h (0 Bft)
20.06.2019 18:11 26,7 C 20,5 C 25,9 C 29,5 C 29,5 C 2,8 C 52 % 55 % 1011,6 hPa 0,0 l/m 0,6 km/h (0 Bft) N 0 0 min 16,0 C 29,5 C 0,0 km/h (0 Bft)
20.06.2019 18:24 26,8 C 20,6 C 26,2 C 32,5 C 32,5 C 5,7 C 52 % 55 % 1011,8 hPa 0,0 l/m 0,0 km/h (0 Bft) S-SW 202 13 min 16,1 C 32,5 C 0,0 km/h (0 Bft)
20.06.2019 18:35 26,8 C 20,6 C 26,0 C 31,5 C 31,5 C 4,7 C 52 % 55 % 1011,8 hPa 0,0 l/m 1,0 km/h (0 Bft) S 180 11 min 16,1 C 31,5 C 0,0 km/h (0 Bft)
20.06.2019 18:40 26,6 C 20,6 C 25,8 C 30,5 C 30,5 C 3,9 C 52 % 55 % 1011,8 hPa 0,0 l/m 1,4 km/h (1 Bft) SW 225 5 min 15,9 C 30,5 C 0,0 km/h (0 Bft)
20.06.2019 18:45 26,5 C 20,6 C 25,5 C 29,2 C 29,2 C 2,7 C 52 % 55 % 1012,1 hPa 0,0 l/m 1,0 km/h (0 Bft) SO 135 0 min 15,8 C 29,2 C 1,8 km/h (1 Bft)
20.06.2019 18:50 26,4 C 20,6 C 25,4 C 28,6 C 28,6 C 2,2 C 53 % 56 % 1012,1 hPa 0,0 l/m 0,5 km/h (0 Bft) S-SW 202 0 min 16,0 C 28,6 C 0,0 km/h (0 Bft)
20.06.2019 18:55 26,5 C 20,6 C 25,4 C 28,1 C 28,1 C 1,6 C 54 % 56 % 1012,1 hPa 0,0 l/m 1,1 km/h (1 Bft) W-NW 292 0 min 16,4 C 28,1 C 5,0 km/h (1 Bft)
20.06.2019 19:00 26,3 C 20,6 C 25,3 C 27,9 C 27,9 C 1,6 C 55 % 57 % 1012,1 hPa 0,0 l/m 1,3 km/h (1 Bft) W-SW 247 0 min 16,5 C 27,9 C 0,0 km/h (0 Bft)
20.06.2019 19:05 26,3 C 20,6 C 25,3 C 27,7 C 27,7 C 1,4 C 56 % 58 % 1012,1 hPa 0,0 l/m 1,0 km/h (0 Bft) W-SW 247 0 min 16,8 C 27,7 C 0,0 km/h (0 Bft)
20.06.2019 19:10 26,3 C 20,6 C 25,2 C 27,7 C 27,7 C 1,4 C 56 % 58 % 1012,1 hPa 0,0 l/m 0,6 km/h (0 Bft) W 270 0 min 16,8 C 27,7 C 3,1 km/h (1 Bft)
20.06.2019 19:15 26,3 C 20,6 C 25,1 C 27,5 C 27,5 C 1,2 C 57 % 58 % 1012,1 hPa 0,0 l/m 0,8 km/h (0 Bft) NW 315 0 min 17,1 C 27,5 C 2,6 km/h (1 Bft)
20.06.2019 19:20 26,3 C 20,6 C 25,0 C 27,4 C 27,4 C 1,1 C 57 % 58 % 1012,1 hPa 0,0 l/m 1,3 km/h (1 Bft) SW 225 0 min 17,1 C 27,4 C 1,9 km/h (1 Bft)
20.06.2019 19:25 26,1 C 20,6 C 24,9 C 27,1 C 27,1 C 1,0 C 56 % 58 % 1012,2 hPa 0,0 l/m 1,3 km/h (1 Bft) S 180 0 min 16,6 C 27,1 C 0,0 km/h (0 Bft)
20.06.2019 19:30 26,0 C 20,6 C 24,9 C 27,0 C 27,0 C 1,0 C 56 % 58 % 1012,2 hPa 0,0 l/m 0,6 km/h (0 Bft) S 180 0 min 16,5 C 27,0 C 0,0 km/h (0 Bft)
20.06.2019 19:35 26,1 C 20,6 C 24,8 C 26,7 C 26,7 C 0,6 C 56 % 59 % 1012,2 hPa 0,0 l/m 0,8 km/h (0 Bft) SW 225 0 min 16,6 C 26,7 C 1,9 km/h (1 Bft)
20.06.2019 19:40 25,9 C 20,7 C 24,7 C 26,5 C 26,5 C 0,6 C 57 % 59 % 1012,2 hPa 0,0 l/m 1,1 km/h (1 Bft) SO 135 0 min 16,7 C 26,5 C 2,3 km/h (1 Bft)
20.06.2019 19:45 25,8 C 20,7 C 24,6 C 26,1 C 26,1 C 0,3 C 57 % 60 % 1012,2 hPa 0,0 l/m 1,0 km/h (0 Bft) NO 45 0 min 16,6 C 26,1 C 2,3 km/h (1 Bft)
20.06.2019 19:50 25,7 C 20,7 C 24,4 C 25,8 C 25,8 C 0,1 C 57 % 59 % 1012,2 hPa 0,0 l/m 1,1 km/h (1 Bft) SW 225 0 min 16,5 C 25,8 C 1,6 km/h (1 Bft)
20.06.2019 19:55 25,6 C 20,7 C 24,3 C 25,5 C 25,4 C 0,0 C 58 % 60 % 1012,2 hPa 0,0 l/m 0,8 km/h (0 Bft) N-NO 22 0 min 16,7 C 25,4 C 0,0 km/h (0 Bft)
20.06.2019 20:00 25,5 C 20,7 C 24,1 C 25,4 C 25,2 C 0,0 C 58 % 61 % 1012,2 hPa 0,0 l/m 0,3 km/h (0 Bft) NW 315 0 min 16,6 C 25,2 C 0,0 km/h (0 Bft)
20.06.2019 20:05 25,5 C 20,7 C 24,0 C 25,3 C 24,9 C 0,0 C 59 % 61 % 1012,2 hPa 0,0 l/m 0,0 km/h (0 Bft) W-SW 247 0 min 16,9 C 24,9 C 0,0 km/h (0 Bft)
20.06.2019 20:11 25,3 C 20,7 C 23,9 C 25,1 C 24,8 C 0,0 C 60 % 62 % 1012,2 hPa 0,0 l/m 0,3 km/h (0 Bft) N 0 0 min 17,0 C 24,8 C 2,9 km/h (1 Bft)
20.06.2019 20:26 24,7 C 20,7 C 23,4 C 24,5 C 24,0 C 0,0 C 60 % 62 % 1012,8 hPa 0,0 l/m 1,0 km/h (0 Bft) O-NO 67 0 min 16,4 C 24,0 C 1,9 km/h (1 Bft)
20.06.2019 20:35 24,0 C 20,7 C 23,1 C 23,8 C 23,3 C 0,0 C 59 % 61 % 1012,8 hPa 0,0 l/m 0,8 km/h (0 Bft) S-SO 157 0 min 15,5 C 23,3 C 0,0 km/h (0 Bft)
20.06.2019 20:40 23,9 C 20,7 C 22,9 C 23,6 C 23,0 C 0,0 C 59 % 60 % 1012,8 hPa 0,0 l/m 0,3 km/h (0 Bft) O-SO 112 0 min 15,4 C 23,0 C 0,0 km/h (0 Bft)
20.06.2019 20:45 23,7 C 20,8 C 22,7 C 23,4 C 22,8 C 0,0 C 59 % 60 % 1012,9 hPa 0,0 l/m 0,0 km/h (0 Bft) O 90 0 min 15,2 C 22,8 C 0,0 km/h (0 Bft)
20.06.2019 20:50 23,5 C 20,8 C 22,5 C 23,2 C 22,6 C 0,0 C 58 % 59 % 1012,9 hPa 0,0 l/m 0,0 km/h (0 Bft) W-SW 247 0 min 14,7 C 22,6 C 0,0 km/h (0 Bft)
20.06.2019 20:55 23,3 C 20,8 C 22,4 C 23,0 C 22,4 C 0,0 C 58 % 59 % 1012,9 hPa 0,0 l/m 0,0 km/h (0 Bft) W-NW 292 0 min 14,6 C 22,4 C 1,6 km/h (1 Bft)
20.06.2019 21:00 23,2 C 20,8 C 22,3 C 22,9 C 22,2 C 0,0 C 58 % 59 % 1012,9 hPa 0,0 l/m 0,0 km/h (0 Bft) NW 315 0 min 14,5 C 22,2 C 0,0 km/h (0 Bft)
20.06.2019 21:05 23,1 C 20,8 C 22,1 C 22,8 C 22,1 C 0,0 C 58 % 61 % 1013,1 hPa 0,0 l/m 0,0 km/h (0 Bft) S 180 0 min 14,4 C 22,1 C 0,0 km/h (0 Bft)
20.06.2019 21:10 22,9 C 20,8 C 22,0 C 22,6 C 22,0 C 0,0 C 59 % 62 % 1013,1 hPa 0,0 l/m 0,0 km/h (0 Bft) SW 225 0 min 14,5 C 22,0 C 0,0 km/h (0 Bft)
20.06.2019 21:15 22,9 C 20,8 C 21,9 C 22,6 C 22,0 C 0,0 C 61 % 64 % 1013,1 hPa 0,0 l/m 0,0 km/h (0 Bft) W 270 0 min 15,0 C 22,0 C 0,0 km/h (0 Bft)
20.06.2019 21:20 22,8 C 20,8 C 21,9 C 22,5 C 21,9 C 0,0 C 62 % 65 % 1013,1 hPa 0,0 l/m 0,0 km/h (0 Bft) W 270 0 min 15,1 C 21,9 C 0,0 km/h (0 Bft)
20.06.2019 21:25 22,8 C 20,8 C 21,8 C 22,5 C 21,9 C 0,0 C 62 % 66 % 1013,2 hPa 0,0 l/m 0,0 km/h (0 Bft) O-NO 67 0 min 15,1 C 21,9 C 0,0 km/h (0 Bft)
20.06.2019 21:30 22,6 C 20,8 C 21,7 C 22,4 C 21,9 C 0,0 C 63 % 65 % 1013,2 hPa 0,0 l/m 0,0 km/h (0 Bft) O-NO 67 0 min 15,2 C 21,9 C 0,0 km/h (0 Bft)
20.06.2019 21:35 22,6 C 20,7 C 21,6 C 22,3 C 21,7 C 0,0 C 63 % 67 % 1013,2 hPa 0,0 l/m 0,0 km/h (0 Bft) O-NO 67 0 min 15,2 C 21,7 C 0,0 km/h (0 Bft)
20.06.2019 21:40 22,5 C 20,7 C 21,6 C 22,2 C 21,6 C 0,0 C 64 % 67 % 1013,2 hPa 0,0 l/m 0,0 km/h (0 Bft) O-NO 67 0 min 15,3 C 21,6 C 0,0 km/h (0 Bft)
20.06.2019 21:45 22,4 C 20,7 C 21,4 C 22,1 C 21,5 C 0,0 C 64 % 67 % 1013,4 hPa 0,0 l/m 0,0 km/h (0 Bft) O-NO 67 0 min 15,2 C 21,5 C 0,0 km/h (0 Bft)
20.06.2019 21:50 22,2 C 20,7 C 21,3 C 22,0 C 21,5 C 0,0 C 65 % 67 % 1013,4 hPa 0,0 l/m 0,3 km/h (0 Bft) O-NO 67 0 min 15,3 C 21,5 C 1,6 km/h (1 Bft)
20.06.2019 21:55 22,1 C 20,7 C 21,3 C 21,9 C 21,4 C 0,0 C 65 % 68 % 1013,4 hPa 0,0 l/m 0,3 km/h (0 Bft) O-NO 67 0 min 15,2 C 21,4 C 0,0 km/h (0 Bft)
20.06.2019 22:00 22,1 C 20,7 C 21,2 C 21,8 C 21,3 C 0,0 C 66 % 69 % 1013,4 hPa 0,0 l/m 0,2 km/h (0 Bft) O-NO 67 0 min 15,4 C 21,3 C 0,0 km/h (0 Bft)
20.06.2019 22:05 21,9 C 20,7 C 21,1 C 21,7 C 21,2 C 0,0 C 67 % 70 % 1013,8 hPa 0,0 l/m 0,0 km/h (0 Bft) O-NO 67 0 min 15,5 C 21,2 C 0,0 km/h (0 Bft)
20.06.2019 22:11 21,9 C 20,7 C 21,1 C 21,6 C 21,1 C 0,0 C 67 % 70 % 1013,8 hPa 0,0 l/m 0,2 km/h (0 Bft) N 0 0 min 15,5 C 21,1 C 0,0 km/h (0 Bft)
20.06.2019 22:24 21,5 C 20,7 C 20,6 C 21,1 C 20,3 C 0,0 C 68 % 71 % 1013,9 hPa 0,0 l/m 0,0 km/h (0 Bft) O-NO 67 0 min 15,3 C 20,3 C 0,0 km/h (0 Bft)
20.06.2019 22:35 21,2 C 20,7 C 20,5 C 20,8 C 20,0 C 0,0 C 70 % 73 % 1013,9 hPa 0,0 l/m 0,0 km/h (0 Bft) O-NO 67 0 min 15,5 C 20,0 C 0,0 km/h (0 Bft)
20.06.2019 22:40 21,2 C 20,7 C 20,5 C 20,8 C 19,9 C 0,0 C 70 % 73 % 1013,9 hPa 0,0 l/m 0,0 km/h (0 Bft) O-NO 67 0 min 15,5 C 19,9 C 0,0 km/h (0 Bft)
20.06.2019 22:45 21,0 C 20,7 C 20,3 C 20,6 C 19,8 C 0,0 C 71 % 74 % 1013,9 hPa 0,0 l/m 0,0 km/h (0 Bft) O-NO 67 0 min 15,5 C 19,8 C 0,0 km/h (0 Bft)
20.06.2019 22:50 20,9 C 20,7 C 20,2 C 20,5 C 19,7 C 0,0 C 71 % 74 % 1013,9 hPa 0,0 l/m 0,0 km/h (0 Bft) O-NO 67 0 min 15,4 C 19,7 C 0,0 km/h (0 Bft)
20.06.2019 22:55 20,7 C 20,7 C 20,0 C 20,3 C 19,5 C 0,0 C 72 % 75 % 1013,9 hPa 0,0 l/m 0,0 km/h (0 Bft) O-NO 67 0 min 15,5 C 19,5 C 0,0 km/h (0 Bft)
20.06.2019 23:00 20,7 C 20,7 C 19,9 C 20,2 C 19,3 C 0,0 C 72 % 76 % 1013,9 hPa 0,0 l/m 0,0 km/h (0 Bft) O-NO 67 0 min 15,5 C 19,3 C 0,0 km/h (0 Bft)
20.06.2019 23:05 20,4 C 20,8 C 19,7 C 19,9 C 19,0 C 0,0 C 73 % 76 % 1013,6 hPa 0,0 l/m 0,0 km/h (0 Bft) NO 45 0 min 15,4 C 19,0 C 0,0 km/h (0 Bft)
20.06.2019 23:10 20,3 C 20,8 C 19,6 C 19,8 C 18,9 C 0,0 C 73 % 76 % 1013,6 hPa 0,0 l/m 0,0 km/h (0 Bft) NO 45 0 min 15,3 C 18,9 C 0,0 km/h (0 Bft)
20.06.2019 23:15 20,1 C 20,8 C 19,6 C 19,7 C 18,8 C 0,0 C 74 % 76 % 1013,6 hPa 0,0 l/m 0,0 km/h (0 Bft) N-NO 22 0 min 15,3 C 18,8 C 0,0 km/h (0 Bft)
20.06.2019 23:20 20,1 C 20,8 C 19,6 C 19,7 C 18,8 C 0,0 C 74 % 77 % 1013,6 hPa 0,0 l/m 0,0 km/h (0 Bft) SW 225 0 min 15,3 C 18,8 C 0,0 km/h (0 Bft)
20.06.2019 23:25 20,1 C 20,8 C 19,6 C 19,7 C 18,8 C 0,0 C 75 % 77 % 1014,1 hPa 0,0 l/m 0,0 km/h (0 Bft) O-NO 67 0 min 15,5 C 18,8 C 0,0 km/h (0 Bft)
20.06.2019 23:30 20,0 C 20,8 C 19,4 C 19,6 C 18,7 C 0,0 C 75 % 78 % 1014,1 hPa 0,0 l/m 0,0 km/h (0 Bft) O-NO 67 0 min 15,4 C 18,7 C 0,0 km/h (0 Bft)
20.06.2019 23:35 19,9 C 20,8 C 19,3 C 19,5 C 18,6 C 0,0 C 76 % 78 % 1014,1 hPa 0,0 l/m 0,0 km/h (0 Bft) O-NO 67 0 min 15,5 C 18,6 C 0,0 km/h (0 Bft)
20.06.2019 23:40 19,7 C 20,8 C 19,2 C 19,3 C 18,5 C 0,0 C 76 % 78 % 1014,1 hPa 0,0 l/m 0,0 km/h (0 Bft) NO 45 0 min 15,3 C 18,5 C 0,0 km/h (0 Bft)
20.06.2019 23:45 19,6 C 20,8 C 19,0 C 19,2 C 18,4 C 0,0 C 76 % 79 % 1014,4 hPa 0,0 l/m 0,0 km/h (0 Bft) NO 45 0 min 15,2 C 18,4 C 0,0 km/h (0 Bft)
20.06.2019 23:50 19,5 C 20,7 C 19,0 C 19,1 C 18,3 C 0,0 C 76 % 79 % 1014,4 hPa 0,0 l/m 0,0 km/h (0 Bft) W 270 0 min 15,2 C 18,3 C 0,0 km/h (0 Bft)
20.06.2019 23:55 19,5 C 20,8 C 19,0 C 19,1 C 18,3 C 0,0 C 77 % 79 % 1014,4 hPa 0,0 l/m 0,2 km/h (0 Bft) NO 45 0 min 15,4 C 18,3 C 0,0 km/h (0 Bft)
_ Min-Zeit 03:55 10:40 03:55 03:50 03:35 00:00 16:45 17:10 00:05 - 00:00 - - - 03:55 03:35 00:00
Minimum _ 16,4 C 19,8 C 16,2 C 16,0 C 15,1 C 0,0 C 49 % 47 % 1009,3 hPa - 0,0 km/h (0 Bft) - - - 13,7 C 15,1 C 0,0 km/h (0 Bft)
_ Max-Zeit 15:15 00:00 16:35 17:15 17:15 11:10 04:24 06:26 23:45 00:00 14:50 - - 12:27 10:55 17:15 13:35
Maximum _ 28,0 C 21,2 C 27,7 C 34,7 C 34,7 C 9,0 C 86 % 90 % 1014,4 hPa 0,0 l/m 3,4 km/h
W (1 Bft)
- - 16 min 17,9 C 34,7 C 11,6 km/h
W-SW (2 Bft)
Durchschnitt _ 22,0 C 20,4 C 21,5 C 24,2 C 23,9 C 2,3 C 69 % 71 % 1011,7 hPa #0,0 l/m 0,9 km/h (0 Bft) S - #8:54 h 15,7 C 23,9 C 1,4 km/h (1 Bft)
2019 www.wetterstation-wechselburg.de